Weather History for Martinsburg, WV

Change the Weather History Date:

Saturday, November 12, 2011

  Actual Average Record
Temperature  
Mean Temperature 47 °F 46 °F  
Max Temperature 65 °F 56 °F 79 °F (1927)
Min Temperature 29 °F 35 °F 15 °F (1926)
Degree Days  
Heating Degree Days 18 19  
Month to date heating degree days 223 212  
Since 1 July heating degree days 595 658  
Cooling Degree Days 0 0  
Month to date cooling degree days 0 0  
Year to date cooling degree days 1284 895  
Moisture  
Dew Point 27 °F    
Average Humidity 49    
Maximum Humidity 69    
Minimum Humidity 28    
Precipitation  
Precipitation 0.00 in 0.09 in 1.50 in (1974)
Month to date precipitation 0.05 1.19  
Year to date precipitation 40.62 34.05  
Sea Level Pressure  
Sea Level Pressure 30.09 in    
Wind  
Wind Speed 6 mph (South)    
Max Wind Speed 15 mph    
Max Gust Speed 18 mph    
Visibility 10 miles    
Events      
T = Trace of Precipitation, MM = Missing Value Source: NWS Daily Summary

Daily Weather History Graph

Daily Weather History Graph

Search for Another Location

Airport:

Trip Planner

Search our weather history database for the weather conditions in past years. The results will help you decide how hot, cold, wet, or windy it might be!

Date:

Astronomy

Nov. 12, 2011 Rise Set
Actual Time 6:52 AM EST 4:59 PM EST
Civil Twilight 6:23 AM EST 5:28 PM EST
Nautical Twilight 5:51 AM EST 6:00 PM EST
Astronomical Twilight 5:19 AM EST 6:32 PM EST
Moon 6:14 PM EST (11/12) 8:32 AM EST (11/12)
Length of Visible Light 11h 04m
Length of Day
10h 07m
Full, 97% of the Moon is Illuminated
Nov 12
Full
Nov 18
Last Quarter
Nov 25
New
Dec 2
First Quarter
Dec 10
Full

Hourly Weather History & Observations

Time (EST) Temp. Windchill Dew Point Humidity Pressure Visibility Wind Dir Wind Speed Gust Speed Precip Events Conditions
12:53 AM 32.0 °F 28.7 °F 21.9 °F 66% 30.11 in 10.0 mi South 3.5 mph - N/A   Clear
1:53 AM 30.9 °F 27.5 °F 21.9 °F 69% 30.13 in 10.0 mi South 3.5 mph - N/A   Clear
2:53 AM 32.0 °F 28.7 °F 21.9 °F 66% 30.12 in 10.0 mi South 3.5 mph - N/A   Clear
3:53 AM 30.9 °F 26.2 °F 21.9 °F 69% 30.12 in 10.0 mi South 4.6 mph - N/A   Clear
4:53 AM 30.9 °F 25.2 °F 21.9 °F 69% 30.11 in 10.0 mi South 5.8 mph - N/A   Clear
5:53 AM 30.9 °F 25.2 °F 21.9 °F 69% 30.11 in 10.0 mi South 5.8 mph - N/A   Clear
6:53 AM 30.9 °F 25.2 °F 21.9 °F 69% 30.11 in 10.0 mi SSE 5.8 mph - N/A   Clear
7:53 AM 34.0 °F 29.8 °F 23.0 °F 64% 30.11 in 10.0 mi South 4.6 mph - N/A   Clear
8:53 AM 44.1 °F 41.5 °F 25.0 °F 47% 30.11 in 10.0 mi SSW 4.6 mph - N/A   Clear
9:53 AM 50.0 °F - 26.1 °F 39% 30.11 in 10.0 mi SSW 9.2 mph - N/A   Clear
10:53 AM 54.0 °F - 27.0 °F 35% 30.10 in 10.0 mi SSW 11.5 mph - N/A   Clear
11:53 AM 57.9 °F - 30.0 °F 35% 30.07 in 10.0 mi SSW 11.5 mph - N/A   Clear
12:53 PM 62.1 °F - 30.9 °F 31% 30.06 in 10.0 mi South 6.9 mph 18.4 mph N/A   Clear
1:53 PM 63.0 °F - 30.0 °F 29% 30.05 in 10.0 mi South 15.0 mph 18.4 mph N/A   Clear
2:53 PM 64.9 °F - 30.9 °F 28% 30.05 in 10.0 mi South 8.1 mph - N/A   Clear
3:53 PM 64.0 °F - 30.0 °F 28% 30.05 in 10.0 mi SSW 9.2 mph - N/A   Clear
4:53 PM 61.0 °F - 30.9 °F 32% 30.06 in 10.0 mi South 8.1 mph - N/A   Clear
5:53 PM 57.0 °F - 30.9 °F 37% 30.08 in 10.0 mi South 6.9 mph - N/A   Clear
6:53 PM 55.0 °F - 30.0 °F 38% 30.09 in 10.0 mi SSW 4.6 mph - N/A   Clear
7:53 PM 46.9 °F - 30.0 °F 52% 30.10 in 10.0 mi SSE 4.6 mph - N/A   Clear
8:53 PM 50.0 °F - 28.9 °F 44% 30.10 in 10.0 mi SSW 3.5 mph - N/A   Clear
9:53 PM 44.1 °F 42.5 °F 30.9 °F 60% 30.11 in 10.0 mi SSE 3.5 mph - N/A   Clear
10:53 PM 50.0 °F - 30.0 °F 46% 30.10 in 10.0 mi South 5.8 mph - N/A   Clear
11:53 PM 45.0 °F - 30.0 °F 56% 30.09 in 10.0 mi Calm Calm - N/A   Clear